Hourly Data Report for February 24, 2018

TORONTO CITY
ONTARIO

43°40'00.000" N
79°24'00.000" W
112.50 m
6158355
71508
XTO

Download Data

Hourly Data (February 2018)
Hourly Data Report for February 24, 2018
TIME
LST
Temp Definition
°C
Dew Point Definition
°C
Rel Hum Definition
%
Precip. Amount Definition
mm

Wind Dir Definition
10's deg

Wind Spd Definition
km/h
Visibility Definition
km
Stn Press Definition
kPa
Hmdx Definition


Wind Chill Definition


Weather Definition


00:00 6.7 3.1 78 0.0 LegendMM LegendMM   100.64     LegendNANA
01:00 6.2 1.4 72 0.0 LegendMM LegendMM   100.71     LegendNANA
02:00 5.6 0.9 72 0.0 LegendMM LegendMM   100.79     LegendNANA
03:00 4.9 -0.5 68 0.0 LegendMM LegendMM   100.83     LegendNANA
04:00 4.4 -0.4 71 0.0 LegendMM LegendMM   100.84     LegendNANA
05:00 4.3 -0.6 71 0.0 LegendMM LegendMM   100.87     LegendNANA
06:00 3.9 -0.4 73 0.0 LegendMM LegendMM   100.93     LegendNANA
07:00 3.7 -1.6 68 0.0 LegendMM LegendMM   100.97     LegendNANA
08:00 3.0 -2.0 70 0.0 LegendMM LegendMM   101.01     LegendNANA
09:00 2.3 -3.3 67 0.0 LegendMM LegendMM   101.06     LegendNANA
10:00 2.3 -3.7 65 0.0 LegendMM LegendMM   101.11     LegendNANA
11:00 3.1 -3.1 64 0.0 LegendMM LegendMM   101.06     LegendNANA
12:00 3.2 -4.2 58 0.0 LegendMM LegendMM   101.04     LegendNANA
13:00 3.7 -4.1 56 0.0 LegendMM LegendMM   100.97     LegendNANA
14:00 3.7 -4.8 54 0.0 LegendMM LegendMM   100.92     LegendNANA
15:00 4.2 -4.4 53 0.0 LegendMM LegendMM   100.88     LegendNANA
16:00 3.7 -3.4 60 0.0 LegendMM LegendMM   100.81     LegendNANA
17:00 3.5 -3.5 60 0.0 LegendMM LegendMM   100.81     LegendNANA
18:00 2.7 -3.5 64 0.0 LegendMM LegendMM   100.79     LegendNANA
19:00 2.6 -3.0 66 0.0 LegendMM LegendMM   100.86     LegendNANA
20:00 2.3 -2.4 71 0.0 LegendMM LegendMM   100.78     LegendNANA
21:00 2.0 -1.7 76 0.0 LegendMM LegendMM   100.66     LegendNANA
22:00 2.1 -2.3 73 0.0 LegendMM LegendMM   100.57     LegendNANA
23:00 2.5 -2.7 69 0.0 LegendMM LegendMM   100.46     LegendNANA

Notes on Data Quality.

Legend

  • E = Estimated
  • M = Missing
  • NA = Not Available*
  • [empty] = Indicates an unobserved value
Date modified: